Darrow, LA

5:29 PM CST on February 27, 2017 (GMT -0600)
Gonzales

Weather History for KL38 - August, 2013

Change the Weather History Date:

Friday, August 2, 2013

  Actual Average (KBTR) Record (KBTR)
Temperature  
Mean Temperature 83 °F -  
Max Temperature 95 °F 90 °F 100 °F (1921)
Min Temperature 72 °F 73 °F 66 °F (1909)
Cooling Degree Days 18    
Growing Degree Days 33 (Base 50)    
Moisture  
Dew Point 74 °F    
Average Humidity 77    
Maximum Humidity 95    
Minimum Humidity 49    
Precipitation  
Precipitation 0.00 in - - ()
Sea Level Pressure  
Sea Level Pressure 29.97 in    
Wind  
Wind Speed 1 mph (East)    
Max Wind Speed 8 mph    
Max Gust Speed 10 mph    
Visibility 10 miles    
Events Thunderstorm    
Averages and records for this station are not official NWS values.
T = Trace of Precipitation, MM = Missing Value Source: NWS Daily Summary

Daily Weather History Graph

Daily Weather History Graph

Search for Another Location

Airport or City:

Trip Planner

Search our weather history database for the weather conditions in past years. The results will help you decide how hot, cold, wet, or windy it might be!

Date:

Astronomy

Aug. 02, 2013 Rise Set
Actual Time 6:23 AM CDT 7:56 PM CDT
Civil Twilight 5:57 AM CDT 8:22 PM CDT
Nautical Twilight 5:26 AM CDT 8:53 PM CDT
Astronomical Twilight 4:53 AM CDT 9:25 PM CDT
Moon 2:47 AM CDT (8/2) 4:51 PM CDT (8/2)
Length of Visible Light 14h 24m
Length of Day
13h 33m
Waning Crescent, 15% of the Moon is Illuminated
Aug 2
Waning Crescent
Aug 6
New
Aug 14
First Quarter
Aug 20
Full
Aug 28
Last Quarter

Hourly Weather History & Observations

Time (CDT) Temp. Heat Index Dew Point Humidity Pressure Visibility Wind Dir Wind Speed Gust Speed Precip Events Conditions
12:15 AM 76.5 °F - 70.7 °F 82% 29.97 in 10.0 mi Calm Calm - N/A   Clear
12:35 AM 75.4 °F - 70.9 °F 86% 29.96 in 10.0 mi Calm Calm - N/A   Clear
12:55 AM 75.4 °F - 71.1 °F 86% 29.96 in 10.0 mi NNE 3.5 mph - N/A   Scattered Clouds
1:15 AM 75.0 °F - 70.9 °F 87% 29.95 in 10.0 mi Calm Calm - N/A   Scattered Clouds
1:55 AM 75.0 °F - 70.5 °F 86% 29.94 in 10.0 mi Calm Calm - N/A   Clear
2:15 AM 74.5 °F - 71.1 °F 89% 29.94 in 10.0 mi Calm Calm - N/A   Scattered Clouds
2:35 AM 75.0 °F - 71.1 °F 87% 29.94 in 10.0 mi Calm Calm - N/A   Scattered Clouds
2:55 AM 74.3 °F - 71.4 °F 91% 29.94 in 10.0 mi Calm Calm - N/A   Scattered Clouds
3:15 AM 73.6 °F - 71.2 °F 92% 29.93 in 10.0 mi Calm Calm - N/A   Scattered Clouds
3:35 AM 73.4 °F - 71.2 °F 93% 29.93 in 10.0 mi Calm Calm - N/A   Clear
3:55 AM 73.2 °F - 71.6 °F 95% 29.93 in 10.0 mi Calm Calm - N/A   Clear
4:15 AM 72.9 °F - 71.4 °F 95% 29.93 in 10.0 mi Calm Calm - N/A   Clear
4:35 AM 73.9 °F - 71.6 °F 92% 29.94 in 10.0 mi Calm Calm - N/A   Clear
4:55 AM 73.4 °F - 71.2 °F 93% 29.94 in 10.0 mi Calm Calm - N/A   Clear
5:15 AM 74.3 °F - 71.4 °F 91% 29.96 in 10.0 mi Calm Calm - N/A   Clear
5:35 AM 73.8 °F - 71.6 °F 93% 29.96 in 10.0 mi Calm Calm - N/A   Clear
5:55 AM 73.0 °F - 71.4 °F 95% 29.96 in 10.0 mi Calm Calm - N/A   Clear
6:15 AM 73.0 °F - 71.6 °F 95% 29.97 in 10.0 mi Calm Calm - N/A   Clear
6:35 AM 73.2 °F - 71.6 °F 95% 29.97 in 10.0 mi Calm Calm - N/A   Clear
6:55 AM 73.4 °F - 72.0 °F 95% 29.97 in 10.0 mi Calm Calm - N/A   Clear
7:35 AM 76.1 °F - 72.9 °F 90% 29.97 in 10.0 mi Calm Calm - N/A   Clear
7:55 AM 77.2 °F - 73.2 °F 88% 29.97 in 10.0 mi Calm Calm - N/A   Clear
8:15 AM 79.0 °F - 73.9 °F 84% 29.98 in 10.0 mi Calm Calm - N/A   Clear
8:35 AM 79.9 °F - 74.5 °F 83% 29.98 in 10.0 mi Calm Calm - N/A   Clear
8:55 AM 81.7 °F 87.6 °F 74.3 °F 78% 29.99 in 10.0 mi Calm Calm - N/A   Clear
9:15 AM 83.7 °F 92.0 °F 75.9 °F 77% 30.00 in 10.0 mi Calm Calm - N/A   Clear
9:35 AM 84.2 °F 93.4 °F 76.5 °F 77% 30.00 in 10.0 mi Calm Calm - N/A   Clear
9:55 AM 85.1 °F 94.9 °F 76.5 °F 75% 30.00 in 10.0 mi Calm Calm - N/A   Clear
10:15 AM 85.8 °F 96.4 °F 76.8 °F 74% 30.00 in 10.0 mi Calm Calm - N/A   Clear
10:35 AM 87.4 °F 99.8 °F 77.5 °F 72% 30.00 in 10.0 mi Calm Calm - N/A   Clear
10:55 AM 87.1 °F 99.3 °F 77.5 °F 73% 30.00 in 10.0 mi Calm Calm - N/A   Scattered Clouds
11:15 AM 87.6 °F 99.7 °F 77.2 °F 71% 29.99 in 10.0 mi Calm Calm - N/A   Mostly Cloudy
11:35 AM 88.2 °F 100.7 °F 77.2 °F 70% 29.99 in 10.0 mi Calm Calm - N/A   Scattered Clouds
11:55 AM 89.1 °F 100.2 °F 75.7 °F 65% 29.99 in 10.0 mi Calm Calm - N/A   Scattered Clouds
12:15 PM 88.2 °F 100.1 °F 76.6 °F 69% 29.98 in 10.0 mi Calm Calm - N/A   Scattered Clouds
12:35 PM 89.2 °F 100.7 °F 75.9 °F 65% 29.98 in 10.0 mi Calm Calm - N/A   Mostly Cloudy
12:55 PM 90.9 °F 103.7 °F 76.6 °F 63% 29.98 in 10.0 mi Calm Calm - N/A   Scattered Clouds
1:15 PM 91.9 °F 104.5 °F 76.1 °F 60% 29.98 in 10.0 mi East 6.9 mph - N/A   Scattered Clouds
1:35 PM 91.6 °F 102.9 °F 75.6 °F 59% 29.98 in 10.0 mi Calm Calm - N/A   Mostly Cloudy
1:55 PM 91.4 °F 103.1 °F 75.6 °F 60% 29.97 in 10.0 mi Calm Calm - N/A   Mostly Cloudy
2:15 PM 92.8 °F 106.2 °F 76.8 °F 59% 29.97 in 10.0 mi Calm Calm - N/A   Mostly Cloudy
2:35 PM 93.0 °F 104.6 °F 75.0 °F 56% 29.96 in 10.0 mi East 3.5 mph - N/A   Scattered Clouds
2:55 PM 94.1 °F 107.3 °F 76.1 °F 56% 29.96 in 10.0 mi NNE 4.6 mph - N/A   Mostly Cloudy
3:15 PM 93.6 °F 103.8 °F 74.3 °F 53% 29.95 in 10.0 mi Calm Calm - N/A   Scattered Clouds
3:35 PM 93.9 °F 104.0 °F 74.1 °F 52% 29.94 in 10.0 mi Calm Calm - N/A   Mostly Cloudy
3:55 PM 94.5 °F 103.3 °F 72.7 °F 49% 29.94 in 10.0 mi North 3.5 mph - N/A   Scattered Clouds
4:15 PM 94.8 °F 105.5 °F 74.1 °F 51% 29.94 in 10.0 mi East 4.6 mph - N/A   Scattered Clouds
4:35 PM 93.2 °F 103.0 °F 73.9 °F 53% 29.93 in 10.0 mi ESE 3.5 mph - N/A   Scattered Clouds
4:55 PM 93.6 °F 103.8 °F 74.3 °F 53% 29.93 in 10.0 mi NNE 3.5 mph - N/A   Mostly Cloudy
5:15 PM 91.4 °F 103.8 °F 76.3 °F 61% 29.93 in 10.0 mi NW 8.1 mph - N/A   Overcast
5:35 PM 91.6 °F 103.6 °F 75.9 °F 60% 29.93 in 10.0 mi North 3.5 mph - N/A   Scattered Clouds
5:55 PM 91.9 °F 103.9 °F 75.6 °F 59% 29.93 in 10.0 mi Calm Calm - N/A Thunderstorm Clear
6:15 PM 91.4 °F 104.5 °F 76.6 °F 62% 29.94 in 10.0 mi Calm Calm - N/A Thunderstorm Mostly Cloudy
6:35 PM 91.0 °F 102.9 °F 75.9 °F 61% 29.94 in 10.0 mi Calm Calm - N/A   Mostly Cloudy
6:55 PM 87.6 °F 99.2 °F 76.8 °F 70% 29.95 in 10.0 mi SSW 5.8 mph 10.4 mph N/A   Scattered Clouds
7:15 PM 86.0 °F 97.3 °F 77.2 °F 75% 29.95 in 10.0 mi South 8.1 mph - N/A   Clear
7:35 PM 84.4 °F 94.2 °F 77.0 °F 78% 29.96 in 10.0 mi SSW 4.6 mph - N/A   Clear
7:55 PM 83.3 °F 92.4 °F 76.8 °F 81% 29.96 in 10.0 mi SSW 3.5 mph - N/A   Clear
8:15 PM 82.6 °F 90.8 °F 76.5 °F 82% 29.97 in 10.0 mi Calm Calm - N/A   Clear
8:35 PM 82.0 °F 89.7 °F 76.5 °F 83% 29.97 in 10.0 mi Calm Calm - N/A   Scattered Clouds
8:55 PM 80.6 °F 86.9 °F 76.8 °F 88% 29.98 in 10.0 mi Calm Calm - N/A   Clear
9:15 PM 80.8 °F 86.9 °F 75.9 °F 85% 29.99 in 10.0 mi Calm Calm - N/A   Clear
9:35 PM 79.5 °F - 76.3 °F 90% 29.99 in 10.0 mi Calm Calm - N/A   Clear
9:55 PM 79.3 °F - 76.1 °F 90% 30.00 in 10.0 mi Calm Calm - N/A   Clear
10:15 PM 78.8 °F - 75.7 °F 90% 30.01 in 10.0 mi Calm Calm - N/A   Clear
10:35 PM 79.0 °F - 75.7 °F 90% 30.01 in 10.0 mi Calm Calm - N/A   Clear
10:55 PM 79.2 °F - 75.7 °F 89% 30.01 in 10.0 mi SSE 3.5 mph - N/A   Clear
11:15 PM 79.3 °F - 75.7 °F 89% 30.01 in 10.0 mi Calm Calm - N/A   Clear
11:35 PM 79.2 °F - 75.9 °F 90% 30.02 in 10.0 mi Calm Calm - N/A   Clear
11:55 PM 77.9 °F - 75.7 °F 93% 30.02 in 10.0 mi Calm Calm - N/A   Clear